Regional Weather Roundup
Issued by NWS

Home | Current Version | Previous Version | Graphics & Text | Print | Product List | Glossary On
Versions: 1 2 3 4 5 6 7 8 9 10 11 12 13 14 15 16 17 18 19 20 21 22 23 24 25 26 27 28 29 30 31 32 33 34 35 36 37 38 39 40 41 42 43 44 45 46 47 48 49 50
000
ASUS43 KDTX 160301
RWRMI
MICHIGAN HOURLY REGIONAL WEATHER ROUNDUP
NATIONAL WEATHER SERVICE DETROIT/PONTIAC MI
1100 PM EDT TUE APR 15 2014

NOTE: "FAIR" INDICATES FEW OR NO CLOUDS BELOW 12,000 FEET WITH NO
SIGNIFICANT WEATHER AND/OR OBSTRUCTION TO VISIBILITY.

MIZ047>049-052>055-059>063-066>070-074>076-081>083-160400-
SOUTHEAST LOWER MICHIGAN

CITY           SKY/WX    TMP DP  RH WIND       PRES   REMARKS
ADRIAN         CLEAR     27  10  49 NW5       30.24R WCI  22
ALMA           CLEAR     28  13  55 SW3       30.22R
ANN ARBOR      CLEAR     27   9  46 NW3       30.22R
BAD AXE        CLEAR     24  11  58 W3        30.20R
CARO           CLEAR     24  15  67 CALM      30.20S
DETROIT CITY   CLEAR     31  12  45 NW5       30.23R WCI  26
DETROIT        PTCLDY    30  14  51 CALM      30.24R
FLINT          CLEAR     27  11  51 CALM      30.22R
GROSSE ILE     CLEAR     28  16  59 N3        30.22R
HILLSDALE      CLEAR     25   9  50 CALM      30.21R
HOWELL         CLEAR     26  10  50 W5        30.21R WCI  20

CITY           SKY/WX    TMP DP  RH WIND       PRES   REMARKS
JACKSON        CLEAR     26   6  42 W5        30.22R WCI  20
LAMBERTVILLE   CLEAR     30  16  55 W3        30.24R
LANSING        CLEAR     26  10  50 SW3       30.22R
LAPEER         FAIR      25  14  62 CALM      30.21R
MASON          CLEAR     27  12  53 CALM      30.22R
MONROE         CLEAR     28  16  59 CALM      30.22R
MT. CLEMENS    CLEAR     27  11  51 NW5       30.22R WCI  21
PONTIAC        CLEAR     26  10  50 NW5       30.20R WCI  20
PORT HOPE        N/A     27   8  44 VRB6      30.17R WCI  20
PORT HURON     CLEAR     25  14  63 NW3       30.22R
TRI CITIES     CLEAR     29  11  47 SW5       30.21R WCI  24
TROY           CLEAR     28  11  48 NW3       30.23R
SAGINAW HB     CLEAR     28  18  64 SW3       30.21R
YPSILANTI      CLEAR     30  11  45 NW5       30.23R WCI  25
$$
MIZ043>046-050>051-056>058-064>065-071>073-077>080-160400-
SOUTHWEST LOWER MICHIGAN

CITY           SKY/WX    TMP DP  RH WIND       PRES   REMARKS
BATTLE CREEK   CLEAR     25  11  55 W3        30.22R
BENTON HARBOR  CLEAR     25  17  72 E5        30.23R WCI  19
BIG RAPIDS     CLEAR     25  15  64 SW3       30.18R
COLDWATER      CLEAR     26  12  55 CALM      30.23R
FREMONT        FAIR      26  15  65 SW5       30.22R WCI  20
HOLLAND        CLEAR     28  16  60 CALM      30.24R
GRAND RAPIDS   CLEAR     27  15  61 W7        30.23R WCI  19
IONIA          FAIR      26  13  57 W6        30.21R WCI  20
KALAMAZOO      CLEAR     27  12  53 CALM      30.23R
LUDINGTON      CLOUDY    29  21  70 SW10      30.21R WCI  20
MARSHALL       CLEAR     23  10  58 CALM      30.22R
MOUNT PLEASANT CLEAR     28  13  53 SW5       30.20R WCI  22
MUSKEGON       CLEAR     27  14  58 S3        30.24R
SOUTH HAVEN    CLEAR     24  18  77 CALM      30.24R
$$
MIZ016>042-160400-
NORTHERN LOWER MICHIGAN

CITY           SKY/WX    TMP DP  RH WIND       PRES   REMARKS
ALPENA         CLEAR     21  15  78 CALM      30.18R
BEAVER ISLAND    N/A     17  16  94 CALM      30.19R FOG
BELLAIRE       CLOUDY    26  17  66 CALM      30.18R
CADILLAC       CLEAR     21  14  72 SW5       30.14R WCI  15
CHARLEVOIX     LGT SNOW  26  22  84 NW7       30.20R WCI  19
FRANKFORT      PTCLDY    28  20  71 SW8       30.18R WCI  20
GAYLORD        PTCLDY    18   9  68 CALM      30.13R
GRAYLING       FAIR      15  11  83 CALM      30.16R
HARBOR SPRINGS LGT SNOW  24  22  91 CALM      30.17R
HOUGHTON LAKE  CLEAR     24  12  60 W7        30.16R WCI  16
MANISTEE       CLEAR     27  16  63 SW3       30.20R
OSCODA         CLEAR     20  11  69 CALM      30.19R
PELLSTON       LGT SNOW  22  19  89 NW3       30.18R FOG
ROGERS CITY    PTCLDY    21  17  83 W3        30.18S
TRAVERSE CITY  CLEAR     26  15  63 SW3       30.17R
$$
MIZ007>008-015-160400-
EASTERN UPPER MICHIGAN

CITY           SKY/WX    TMP DP  RH WIND       PRES   REMARKS
KINROSS        CLEAR     12  10  92 W3        30.16R
MACKINAC ISLAN CLOUDY    20  13  72 CALM      30.17R
NEWBERRY       CLEAR      8   6  93 SW3       30.16R
S. S. MARIE    CLEAR     15   8  73 W5        30.16R WCI   8
MUNISING         N/A     16   9  74 S6        30.17R WCI   7
$$
MIZ004>006-011>014-085-160400-
CENTRAL UPPER MICHIGAN

CITY           SKY/WX    TMP DP  RH WIND       PRES   REMARKS
MANISTIQUE     CLEAR     14  12  93 CALM      30.18R
ESCANABA       CLEAR     21  12  68 NE5       30.16R WCI  15
MENOMINEE      PTCLDY    27  19  74 CALM      30.16R
SAWYER-GWINN   CLEAR      6   4  88 CALM      30.13R
$$
MIZ001>003-009>011-084-160400-
WESTERN UPPER MICHIGAN

CITY           SKY/WX    TMP DP  RH WIND       PRES   REMARKS
IRON MOUNTAIN  CLEAR     15   8  73 E5        30.12R WCI   8
HOUGHTON       CLEAR     17   2  51 CALM      30.10R
COPPER HARBOR    N/A     20   7  57 SW3       30.13R
IRONWOOD       CLEAR     19   9  63 CALM      30.07S
$$

ABBREVIATIONS USED IN REMARKS
   TC - TEMPERATURE IN CELSIUS
  WCI - WIND CHILL INDEX
   HX - HEAT INDEX
  VSB - VISIBILITY




USA.gov is the U.S. government's official web portal to all federal, state and local government web resources and services.